Topeka, KS

4:02 PM CDT on September 26, 2016 (GMT -0500)
Forbes

Weather History for KFOE - March, 2014

Change the Weather History Date:

Monday, March 10, 2014

  Actual Average Record
Temperature  
Mean Temperature 60 °F -  
Max Temperature 79 °F 55 °F 84 °F (1967)
Min Temperature 42 °F 32 °F 5 °F (1998)
Degree Days  
Heating Degree Days 4    
Growing Degree Days 10 (Base 50)    
Moisture  
Dew Point 29 °F    
Average Humidity 35    
Maximum Humidity 53    
Minimum Humidity 16    
Precipitation  
Precipitation 0.00 in - - ()
Sea Level Pressure  
Sea Level Pressure 29.78 in    
Wind  
Wind Speed 11 mph (SW)    
Max Wind Speed 16 mph    
Max Gust Speed 23 mph    
Visibility 9 miles    
Events      
Averages and records for this station are not official NWS values.
T = Trace of Precipitation, MM = Missing Value Source: NWS Daily Summary

Daily Weather History Graph

Daily Weather History Graph

Search for Another Location

Airport or City:

Trip Planner

Search our weather history database for the weather conditions in past years. The results will help you decide how hot, cold, wet, or windy it might be!

Date:

Astronomy

Mar. 10, 2014 Rise Set
Actual Time 7:41 AM CDT 7:24 PM CDT
Civil Twilight 7:15 AM CDT 7:51 PM CDT
Nautical Twilight 6:44 AM CDT 8:22 PM CDT
Astronomical Twilight 6:13 AM CDT 8:53 PM CDT
Moon 2:11 PM CDT (3/10) 3:52 AM CDT (3/10)
Length of Visible Light 12h 36m
Length of Day
11h 43m
Waxing Gibbous, 70% of the Moon is Illuminated
Mar 10
Waxing Gibbous
Mar 16
Full
Mar 23
Last Quarter
Mar 30
New
Apr 7
First Quarter

Hourly Weather History & Observations

Time (CDT) Temp. Windchill Dew Point Humidity Pressure Visibility Wind Dir Wind Speed Gust Speed Precip Events Conditions
12:53 AM 46.0 °F 40.6 °F 28.0 °F 50% 29.95 in 10.0 mi SSW 11.5 mph - N/A   Clear
1:53 AM 45.0 °F 38.9 °F 27.0 °F 49% 29.91 in 10.0 mi SSW 12.7 mph - N/A   Clear
2:53 AM 44.1 °F 37.1 °F 26.1 °F 49% 29.89 in 10.0 mi SSW 15.0 mph - N/A   Clear
3:53 AM 42.1 °F 35.2 °F 26.1 °F 53% 29.86 in 10.0 mi SSW 12.7 mph - N/A   Clear
4:53 AM 46.0 °F 39.3 °F 25.0 °F 44% 29.83 in 10.0 mi SSW 16.1 mph - N/A   Clear
5:53 AM 46.0 °F 39.9 °F 25.0 °F 44% 29.83 in 10.0 mi SSW 13.8 mph - N/A   Clear
6:53 AM 43.0 °F 36.8 °F 24.1 °F 47% 29.85 in 10.0 mi SW 11.5 mph - N/A   Clear
7:53 AM 42.1 °F 37.1 °F 25.0 °F 51% 29.85 in 10.0 mi SSW 8.1 mph - N/A   Clear
8:53 AM 46.9 °F - 26.1 °F 44% 29.85 in 10.0 mi SW 12.7 mph - N/A   Clear
9:53 AM 53.1 °F - 27.0 °F 37% 29.83 in 10.0 mi SW 13.8 mph - N/A   Clear
10:53 AM 57.9 °F - 28.0 °F 32% 29.84 in 10.0 mi WSW 11.5 mph - N/A   Clear
11:53 AM 64.0 °F - 28.9 °F 27% 29.83 in 10.0 mi WNW 8.1 mph - N/A   Clear
12:53 PM 69.1 °F - 30.9 °F 24% 29.80 in 10.0 mi SW 9.2 mph - N/A   Clear
1:53 PM 73.9 °F - 30.9 °F 21% 29.77 in 10.0 mi SW 10.4 mph 16.1 mph N/A   Clear
2:53 PM 75.9 °F - 30.0 °F 19% 29.73 in 10.0 mi SW 11.5 mph 23.0 mph N/A   Clear
3:43 PM 79.0 °F - 28.9 °F 16% 29.73 in 1.8 mi West 9.2 mph - N/A   Haze
3:50 PM 78.8 °F - 28.4 °F 16% 29.73 in 3.0 mi WNW 10.4 mph - N/A   Haze
3:51 PM 78.1 °F - 30.0 °F 17% 29.72 in 3.0 mi NW 10.4 mph - N/A   Haze
4:53 PM 79.0 °F - 32.0 °F 18% 29.69 in 10.0 mi NW 8.1 mph - N/A   Clear
5:53 PM 73.9 °F - 33.1 °F 22% 29.68 in 10.0 mi NNW 5.8 mph - N/A   Clear
6:53 PM 73.0 °F - 30.9 °F 21% 29.69 in 10.0 mi Calm Calm - N/A   Clear
7:53 PM 62.1 °F - 30.0 °F 30% 29.70 in 10.0 mi Calm Calm - N/A   Clear
8:53 PM 53.1 °F - 32.0 °F 45% 29.70 in 10.0 mi Calm Calm - N/A   Clear
9:53 PM 53.1 °F - 33.1 °F 47% 29.68 in 10.0 mi South 4.6 mph - N/A   Clear
10:53 PM 55.0 °F - 32.0 °F 42% 29.66 in 10.0 mi SSW 10.4 mph - N/A   Clear
11:53 PM 53.1 °F - 30.0 °F 41% 29.65 in 10.0 mi SSW 10.4 mph - N/A   Clear